Regional Weather Roundup
Issued by NWS

Home | Current Version | Previous Version | Text Only | Print | Product List | Glossary On
Versions: 1 2 3 4 5 6 7 8 9 10 11 12 13 14 15 16 17 18 19 20 21 22 23 24 25 26 27 28 29 30 31 32 33 34 35 36 37 38 39 40 41 42 43 44 45 46 47 48 49 50
243
ASUS45 KPSR 050910
RWRAZ

ARIZONA HOURLY REGIONAL WEATHER ROUNDUP
NATIONAL WEATHER SERVICE PHOENIX AZ
200 AM MST THU MAY 05 2016

NOTE: FAIR INDICATES FEW OR NO CLOUDS BELOW 12,000 FEET WITH NO
SIGNIFICANT WEATHER AND/OR OBSTRUCTIONS TO VISIBILITY.

AZZ001>003-036-051000-
NORTHWEST ARIZONA

CITY           SKY/WX    TMP DP  RH WIND       PRES   REMARKS
BULLHEAD CITY  MOCLDY    82  32  16 SE12      29.74F
KINGMAN          N/A     65  24  21 SE17      29.88F
$$

AZZ004>008-015-016-018-051000-
NORTH CENTRAL ARIZONA

CITY           SKY/WX    TMP DP  RH WIND       PRES   REMARKS
GRAND CANYON   MOCLDY    42  30  62 NE8       30.14F
WILLIAMS       PTCLDY    43  27  52 S8        30.20F
PRESCOTT       PTCLDY    59  25  27 CALM      30.04F
FLAGSTAFF      CLEAR     37  28  70 CALM      30.17F
PAYSON         CLEAR     59  27  29 CALM      30.09F
PAGE           CLEAR     65  27  23 SE6       29.97F
$$

AZZ009>014-017-051000-
NORTHEAST ARIZONA

CITY           SKY/WX    TMP DP  RH WIND       PRES   REMARKS
WINSLOW        CLEAR     60  32  34 S10       30.05F
SAINT JOHNS    CLEAR     63  24  22 S13       30.10F
WINDOW ROCK    CLEAR     42  35  76 CALM      30.20F
SHOW LOW       CLEAR     48  23  37 CALM      30.17F
$$

AZZ023-051000-
GREATER PHOENIX AREA

CITY           SKY/WX    TMP DP  RH WIND       PRES   REMARKS
PHOENIX        CLEAR     77  29  17 SE6       29.82S
BUCKEYE        MOCLDY    66  23  19 CALM      29.83S
LUKE AFB       PTCLDY    74  33  22 VRB1      29.81F
DEER VALLEY    CLEAR     73  27  18 E6        29.83F
SCOTTSDALE     CLEAR     74  32  21 NE3       29.85F
MESA-GATEWAY   CLEAR     68  34  28 SE8       29.86F
$$

AZZ027-028-051000-
SOUTHWEST MARICOPA COUNTY AND PINAL COUNTY

CITY           SKY/WX    TMP DP  RH WIND       PRES   REMARKS
CASA GRANDE    CLEAR     73  23  15 E6        29.87F
GILA BEND      FAIR      74  22  14 S9        29.80S
$$

AZZ503-504-507>509-051000-
SOUTHEAST ARIZONA

CITY           SKY/WX    TMP DP  RH WIND       PRES   REMARKS
TUCSON         CLEAR     71  31  22 SE7       29.94F
DAVIS-MONTHAN  CLEAR     67  32  27 SE9       29.92F
NOGALES        CLEAR     58  31  35 NE7       30.00F
SIERRA VISTA   CLEAR     64  26  23 SE5       30.05F
DOUGLAS        CLEAR     68  23  18 SE7       30.02F
SAFFORD        CLEAR     69  23  17 E10       29.96F
$$

AZZ020-021-025-026-031-051000-
SOUTHWEST ARIZONA

CITY           SKY/WX    TMP DP  RH WIND       PRES   REMARKS
YUMA           MOCLDY    72  46  39 S12       29.72F
$$

CAZ031-033-041-043-047-048-061-051000-
SOUTHERN CALIFORNIA

CITY           SKY/WX    TMP DP  RH WIND       PRES   REMARKS
DOWNTOWN L.A.  CLOUDY    60  52  74 W3        29.92F
L.A. AIRPORT   MOCLDY    59  53  80 W5        29.92F
SAN DIEGO      CLOUDY    62  52  69 NW5       29.93F
BURBANK        CLOUDY    57  50  77 S3        29.91F
ONTARIO        CLOUDY    58  51  78 SW10      29.91F
RIVERSIDE      CLOUDY    58  51  78 W6        29.92F
PALM SPRINGS   CLEAR     71  44  37 NW7       29.72F
EL CENTRO NAS  CLEAR    N/A N/A N/A W23       29.72F
IMPERIAL       CLEAR     74  43  32 NW13      29.70F
BLYTHE         MOCLDY    77  37  23 S9        29.73F
NEEDLES        MOCLDY    80  31  16 S5        29.74F
$$

NVZ020-UTZ003-051000-
SOUTHERN NEVADA-UTAH

CITY           SKY/WX    TMP DP  RH WIND       PRES   REMARKS
LAS VEGAS      MOCLDY    74  31  20 S5        29.72F
SALT LAKE CITY CLOUDY    65  33  30 SE10      29.94F
$$

NMZ009-TXZ055-051000-
NEW MEXICO-WEST TEXAS

CITY           SKY/WX    TMP DP  RH WIND       PRES   REMARKS
ALBUQUERQUE    CLEAR     57  25  29 N6        30.18F
EL PASO        PTCLDY    66  20  17 N3        30.11F
$$


........................KEY........................
SKY/WX - SKY CONDITION/WEATHER
TMP    - TEMPERATURE IN FAHRENHEIT
DP     - DEW POINT IN FAHRENHEIT
RH     - RELATIVE HUMIDITY IN PERCENT
WIND   - DIRECTION AND SPEED IN MILES PER HOUR (MPH)
VRB    - VARIABLE WIND DIRECTION
PRES   - MEAN SEA LEVEL PRESSURE IN INCHES OF MERCURY
         F - FALLING PRESSURE   R - RISING PRESSURE
         S - STEADY PRESSURE
VSB    - VISIBILITY IN MILES
HX     - HEAT INDEX IN FAHRENHEIT
WCI    - WIND CHILL INDEX IN FAHRENHEIT
TC     - TEMPERATURE IN CELSIUS WHICH IS ALSO KNOWN AS
         TEMPERATURE IN CENTIGRADE
AFB    - AIR FORCE BASE
         LUKE AFB IS LUKE AIR FORCE BASE
         DAVIS-MONTHAN IS DAVIS-MONTHAN AIR FORCE BASE
NAS    - NAVAL AIR STATION
         EL CENTRO NAS IS EL CENTRO NAVAL AIR STATION
N/A    - NOT AVAILABLE





USA.gov is the U.S. government's official web portal to all federal, state and local government web resources and services.